Welkom op Weerpagina Nieuwendam !!





My webcam Meer informatie My webcam


Onweer radar Meer informatie blitzortung!


Regen radar  rain snow radar


Bezoek onze andere website:

Template documentation
and downloads

And another site



Weather Underground Historische gegevens

Dagelijkse Samenvatting oktober 20, 2018 Eenheden:  Metrisch    Engels   Beide
« Vorige Dag
Volgende Dag »
Dagelijkse Wekelijkse Maandelijkse Jaarlijkse Aangepaste
  Huidig: Hoog: Laag: Gemiddeld:
Temperatuur: -11.3 °C -17.8 °C -14.7 °C -11.8 °C
Dauwpunt: -12.6 °C -17.8 °C -15.1 °C -13.2 °C
Vochtigheid: 86 % Humidity % 68 % 85 %
Wind snelheid: 0 km/h 0 km/h 0 km/h 2.3 km/h
Windvlaag: 0 km/h 0 km/h - -
Wind:Calm - - SW
Luchtdruk: 34848.7 hPa 0 hPa 34753.9 hPa -
Neerslag: 0 mm      
Historical Graphs
 
 
Tabel voor oktober 20, 2018
Tijd Temperatuur Dauwpunt Luchtdruk Wind Wind snelheid Windvlaag Vochtigheid Regenval per uur
-17.8 °C -17.8 °C 0 hPa Calm     Humidity % 0 mm
00:04 -14.1 °C -14.8 °C 34753.9 hPa Calm     92 % 0 mm
00:09 -14.1 °C -14.8 °C 34753.9 hPa Calm     92 % 0 mm
00:14 -14.1 °C -14.8 °C 34753.9 hPa Calm     92 % 0 mm
00:19 -14.1 °C -14.8 °C 34757.3 hPa Calm     92 % 0 mm
00:24 -14.2 °C -14.8 °C 34757.3 hPa Calm     92 % 0 mm
00:29 -14.2 °C -14.9 °C 34757.3 hPa Calm     92 % 0 mm
00:33 -14.2 °C -14.9 °C 34757.3 hPa Calm     92 % 0 mm
00:38 -14.3 °C -14.9 °C 34760.7 hPa Calm     92 % 0 mm
00:43 -14.3 °C -15 °C 34757.3 hPa Calm     92 % 0 mm
00:48 -14.3 °C -14.8 °C 34753.9 hPa Calm     93 % 0 mm
00:53 -14.2 °C -14.8 °C 34753.9 hPa Calm     93 % 0 mm
00:58 -14.3 °C -14.8 °C 34753.9 hPa Calm     93 % 0 mm
01:03 -14.3 °C -14.9 °C 34770.8 hPa Calm     93 % 0 mm
01:08 -14.3 °C -14.9 °C 34770.8 hPa Calm     93 % 0 mm
01:13 -14.3 °C -14.9 °C 34767.4 hPa Calm     93 % 0 mm
01:18 -14.3 °C -14.9 °C 34770.8 hPa Calm     93 % 0 mm
01:23 -14.3 °C -14.9 °C 34774.2 hPa Calm     93 % 0 mm
01:28 -14.3 °C -14.9 °C 34770.8 hPa Calm     93 % 0 mm
01:33 -14.3 °C -14.9 °C 34777.6 hPa Calm     93 % 0 mm
01:38 -14.3 °C -14.9 °C 34774.2 hPa Calm     93 % 0 mm
01:44 -14.3 °C -14.9 °C 34781 hPa Calm     93 % 0 mm
01:48 -14.3 °C -14.9 °C 34784.4 hPa Calm     93 % 0 mm
01:54 -14.3 °C -14.8 °C 34784.4 hPa Calm     94 % 0 mm
01:58 -14.3 °C -14.8 °C 34784.4 hPa Calm     94 % 0 mm
02:03 -14.3 °C -14.8 °C 34781 hPa Calm     94 % 0 mm
02:09 -14.3 °C -14.8 °C 34781 hPa Calm     94 % 0 mm
02:14 -14.3 °C -14.8 °C 34787.8 hPa Calm     94 % 0 mm
02:19 -14.4 °C -14.9 °C 34784.4 hPa Calm     94 % 0 mm
02:24 -14.4 °C -14.9 °C 34787.8 hPa Calm     94 % 0 mm
02:29 -14.4 °C -14.9 °C 34784.4 hPa Calm     94 % 0 mm
02:34 -14.3 °C -14.8 °C 34781 hPa Calm     94 % 0 mm
02:38 -14.3 °C -14.8 °C 34777.6 hPa Calm     94 % 0 mm
02:44 -14.3 °C -14.8 °C 34770.8 hPa Calm     94 % 0 mm
02:49 -14.3 °C -14.8 °C 34770.8 hPa Calm     94 % 0 mm
02:53 -14.4 °C -14.9 °C 34770.8 hPa Calm     94 % 0 mm
02:59 -14.4 °C -14.9 °C 34774.2 hPa Calm     94 % 0 mm
03:04 -14.4 °C -14.9 °C 34781 hPa Calm     94 % 0 mm
03:08 -14.4 °C -14.9 °C 34777.6 hPa Calm     94 % 0 mm
03:13 -14.4 °C -14.9 °C 34777.6 hPa Calm     94 % 0 mm
03:18 -14.5 °C -14.9 °C 34777.6 hPa Calm     94 % 0 mm
03:23 -14.5 °C -14.9 °C 34777.6 hPa Calm     94 % 0 mm
03:28 -14.5 °C -15 °C 34781 hPa Calm     94 % 0 mm
03:33 -14.6 °C -15.1 °C 34781 hPa Calm     94 % 0 mm
03:38 -14.6 °C -15.1 °C 34781 hPa Calm     94 % 0 mm
03:43 -14.6 °C -15.1 °C 34774.2 hPa Calm     94 % 0 mm
03:49 -14.6 °C -14.9 °C 34770.8 hPa Calm     95 % 0 mm
03:53 -14.6 °C -14.9 °C 34774.2 hPa Calm     95 % 0 mm
03:59 -14.6 °C -15.1 °C 34774.2 hPa Calm     94 % 0 mm
04:04 -14.6 °C -15.1 °C 34774.2 hPa Calm     94 % 0 mm
04:08 -14.6 °C -15.1 °C 34774.2 hPa Calm     94 % 0 mm
04:14 -14.6 °C -15.1 °C 34777.6 hPa Calm     94 % 0 mm
04:18 -14.6 °C -15.1 °C 34777.6 hPa Calm     94 % 0 mm
04:24 -14.7 °C -15.1 °C 34777.6 hPa Calm     95 % 0 mm
04:29 -14.6 °C -15.1 °C 34774.2 hPa Calm     95 % 0 mm
04:34 -14.6 °C -15 °C 34777.6 hPa Calm     95 % 0 mm
04:39 -14.6 °C -14.9 °C 34770.8 hPa Calm     95 % 0 mm
04:44 -14.6 °C -14.9 °C 34774.2 hPa Calm     95 % 0 mm
04:48 -14.6 °C -14.9 °C 34777.6 hPa Calm     95 % 0 mm
04:54 -14.6 °C -15 °C 34781 hPa Calm     95 % 0 mm
04:59 -14.6 °C -15.1 °C 34784.4 hPa Calm     95 % 0 mm
05:04 -14.6 °C -15.1 °C 34791.2 hPa Calm     95 % 0 mm
05:09 -14.7 °C -15.1 °C 34797.9 hPa Calm     95 % 0 mm
05:13 -14.7 °C -15.1 °C 34797.9 hPa Calm     95 % 0 mm
05:19 -14.6 °C -15.1 °C 34797.9 hPa Calm     95 % 0 mm
05:24 -14.6 °C -14.9 °C 34801.3 hPa Calm     95 % 0 mm
05:28 -14.5 °C -14.9 °C 34801.3 hPa Calm     95 % 0 mm
05:33 -14.5 °C -14.9 °C 34801.3 hPa Calm     95 % 0 mm
05:38 -14.5 °C -14.9 °C 34804.7 hPa Calm     95 % 0 mm
05:43 -14.5 °C -14.9 °C 34808.1 hPa Calm     95 % 0 mm
05:49 -14.4 °C -14.8 °C 34811.5 hPa Calm     95 % 0 mm
05:53 -14.4 °C -14.8 °C 34811.5 hPa Calm     95 % 0 mm
05:59 -14.3 °C -14.7 °C 34808.1 hPa Calm     96 % 0 mm
06:03 -14.3 °C -14.7 °C 34808.1 hPa Calm     96 % 0 mm
06:09 -14.2 °C -14.6 °C 34814.9 hPa Calm     96 % 0 mm
06:14 -14.2 °C -14.6 °C 34811.5 hPa Calm     96 % 0 mm
06:18 -14.1 °C -14.5 °C 34811.5 hPa Calm     96 % 0 mm
06:24 -14 °C -14.3 °C 34814.9 hPa Calm     96 % 0 mm
06:28 -14 °C -14.3 °C 34814.9 hPa Calm     96 % 0 mm
06:33 -13.9 °C -14.2 °C 34814.9 hPa Calm     96 % 0 mm
06:39 -13.8 °C -14.2 °C 34814.9 hPa Calm     96 % 0 mm
06:44 -13.8 °C -14.2 °C 34818.2 hPa Calm     96 % 0 mm
06:49 -13.7 °C -14.1 °C 34821.6 hPa Calm     96 % 0 mm
06:54 -13.7 °C -14 °C 34821.6 hPa Calm     96 % 0 mm
06:59 -13.6 °C -13.9 °C 34821.6 hPa Calm     96 % 0 mm
07:04 -13.5 °C -13.8 °C 34818.2 hPa Calm     96 % 0 mm
07:08 -13.5 °C -13.8 °C 34821.6 hPa Calm     96 % 0 mm
07:14 -13.5 °C -13.8 °C 34821.6 hPa Calm     96 % 0 mm
07:19 -13.4 °C -13.8 °C 34825 hPa Calm     96 % 0 mm
07:24 -13.4 °C -13.8 °C 34821.6 hPa Calm     96 % 0 mm
07:29 -13.5 °C -13.8 °C 34821.6 hPa Calm     96 % 0 mm
07:35 -13.5 °C -13.8 °C 34821.6 hPa Calm     96 % 0 mm
07:38 -13.5 °C -13.8 °C 34821.6 hPa Calm     96 % 0 mm
07:43 -13.5 °C -13.8 °C 34825 hPa Calm     96 % 0 mm
07:48 -13.6 °C -13.9 °C 34825 hPa Calm     96 % 0 mm
07:53 -13.6 °C -13.9 °C 34821.6 hPa Calm     96 % 0 mm
07:58 -13.5 °C -13.8 °C 34814.9 hPa Calm     96 % 0 mm
08:03 -13.4 °C -13.8 °C 34814.9 hPa Calm     96 % 0 mm
08:08 -13.4 °C -13.7 °C 34825 hPa Calm     96 % 0 mm
08:13 -13.4 °C -13.7 °C 34825 hPa Calm     96 % 0 mm
08:19 -13.3 °C -13.6 °C 34828.4 hPa Calm     96 % 0 mm
08:23 -13.2 °C -13.6 °C 34838.6 hPa Calm     96 % 0 mm
08:29 -13.2 °C -13.5 °C 34838.6 hPa Calm     96 % 0 mm
08:34 -13.2 °C -13.5 °C 34841.9 hPa Calm     96 % 0 mm
08:38 -13.1 °C -13.4 °C 34841.9 hPa Calm     96 % 0 mm
08:43 -13.1 °C -13.4 °C 34838.6 hPa Calm     96 % 0 mm
08:49 -13.1 °C -13.4 °C 34841.9 hPa Calm     96 % 0 mm
08:53 -13.1 °C -13.4 °C 34845.3 hPa Calm     96 % 0 mm
08:59 -13.1 °C -13.4 °C 34845.3 hPa Calm     96 % 0 mm
09:03 -13 °C -13.4 °C 34841.9 hPa Calm     96 % 0 mm
09:08 -13 °C -13.4 °C 34848.7 hPa Calm     96 % 0 mm
09:11 -13 °C -13.3 °C 34845.3 hPa Calm     96 % 0 mm
09:19 -12.9 °C -13.3 °C 34848.7 hPa Calm     96 % 0 mm
09:23 -12.9 °C -13.2 °C 34852.1 hPa Calm     96 % 0 mm
09:29 -12.7 °C -13 °C 34852.1 hPa Calm     97 % 0 mm
09:34 -12.6 °C -12.8 °C 34852.1 hPa Calm     97 % 0 mm
09:39 -12.4 °C -12.7 °C 34855.5 hPa Calm     97 % 0 mm
09:44 -12.3 °C -12.6 °C 34852.1 hPa SW 5.5 km/h   97 % 0 mm
09:49 -12.3 °C -12.5 °C 34852.1 hPa SSW 9 km/h   97 % 0 mm
09:53 -12.2 °C -12.4 °C 34852.1 hPa Calm     97 % 0 mm
09:57 -12.2 °C -12.6 °C 34848.7 hPa SSW 5.5 km/h   96 % 0 mm
10:03 -11.9 °C -12.3 °C 34845.3 hPa South 9 km/h 2.6 km/h 96 % 0 mm
10:09 -11.7 °C -12.1 °C 34845.3 hPa SSW 11.9 km/h 6 km/h 95 % 0 mm
10:13 -11.5 °C -12.1 °C 34848.7 hPa South 13.5 km/h 3.9 km/h 94 % 0 mm
10:18 -11.3 °C -12.1 °C 34848.7 hPa Calm     92 % 0 mm
10:24 -11.2 °C -12.1 °C 34855.5 hPa Calm     90 % 0 mm
10:28 -11.1 °C -12.1 °C 34855.5 hPa Calm     88 % 0 mm
10:33 -10.9 °C -12.1 °C 34862.3 hPa Calm     87 % 0 mm
10:38 -10.9 °C -12.3 °C 34869 hPa SW 6 km/h 0.8 km/h 85 % 0 mm
10:44 -10.8 °C -12.4 °C 34869 hPa Calm     83 % 0 mm
10:48 -10.8 °C -12.4 °C 34869 hPa Calm     82 % 0 mm
10:54 -10.7 °C -12.6 °C 34869 hPa SW 6 km/h 0.3 km/h 80 % 0 mm
10:58 -10.7 °C -12.6 °C 34869 hPa Calm     80 % 0 mm
11:03 -10.7 °C -12.7 °C 34869 hPa SSW 3.1 km/h   78 % 0 mm
11:09 -10.6 °C -12.7 °C 34872.4 hPa Calm     78 % 0 mm
11:14 -10.5 °C -12.7 °C 34872.4 hPa SW 3.1 km/h 0.5 km/h 77 % 0 mm
11:18 -10.4 °C -12.7 °C 34872.4 hPa South 9 km/h 2.6 km/h 76 % 0 mm
11:24 -10.3 °C -12.7 °C 34872.4 hPa South 8 km/h 1.3 km/h 76 % 0 mm
11:29 -10.3 °C -12.8 °C 34872.4 hPa WSW 9 km/h 1.6 km/h 74 % 0 mm
11:34 -10.2 °C -12.8 °C 34875.8 hPa Calm     74 % 0 mm
11:38 -10.2 °C -12.6 °C 34879.2 hPa SSW 2.6 km/h 0.3 km/h 75 % 0 mm
11:44 -10.1 °C -12.7 °C 34882.6 hPa SW 17.4 km/h 6.4 km/h 74 % 0 mm
11:49 -10.1 °C -12.7 °C 34886 hPa Calm     74 % 0 mm
11:54 -10 °C -12.6 °C 34889.3 hPa Calm     74 % 0 mm
11:59 -9.9 °C -12.4 °C 34889.3 hPa SW 6 km/h 1.3 km/h 74 % 0 mm
12:04 -9.7 °C -12.3 °C 34896.1 hPa Calm     74 % 0 mm
12:08 -9.6 °C -12.2 °C 34892.7 hPa Calm     73 % 0 mm
12:13 -9.4 °C -12.1 °C 34892.7 hPa SW 2.9 km/h 0.3 km/h 73 % 0 mm
12:19 -9.3 °C -12.1 °C 34896.1 hPa SSW 9 km/h 0.3 km/h 72 % 0 mm
12:23 -9.2 °C -12 °C 34896.1 hPa SW 3.1 km/h   72 % 0 mm
12:28 -9.1 °C -11.9 °C 34896.1 hPa SSW 6 km/h 1.3 km/h 72 % 0 mm
12:33 -9.1 °C -11.9 °C 34892.7 hPa WSW 9 km/h   71 % 0 mm
12:39 -8.8 °C -11.9 °C 34896.1 hPa SW 3.1 km/h   70 % 0 mm
12:44 -8.7 °C -11.9 °C 34892.7 hPa SSW 3.1 km/h 0.5 km/h 69 % 0 mm
12:48 -8.7 °C -11.8 °C 34892.7 hPa SW 6 km/h 1 km/h 69 % 0 mm
12:54 -8.6 °C -11.9 °C 34889.3 hPa WSW 15 km/h 6.3 km/h 68 % 0 mm
12:58 -8.6 °C -11.9 °C 34886 hPa South 6 km/h 1.8 km/h 68 % 0 mm
13:03 -8.6 °C -11.9 °C 34886 hPa WSW 23.8 km/h 5.1 km/h 68 % 0 mm
13:09 -8.6 °C -11.9 °C 34882.6 hPa WSW 9 km/h 5 km/h 68 % 0 mm
13:14 -8.6 °C -11.8 °C 34882.6 hPa WSW 2.9 km/h   69 % 0 mm
13:18 -8.6 °C -11.8 °C 34879.2 hPa WSW 11.9 km/h 0.8 km/h 69 % 0 mm
13:24 -8.7 °C -11.7 °C 34879.2 hPa WSW 15 km/h 3.9 km/h 70 % 0 mm
13:28 -8.6 °C -11.6 °C 34875.8 hPa WSW 8.9 km/h 2.1 km/h 70 % 0 mm
13:34 -8.5 °C -11.7 °C 34875.8 hPa SSW 3.1 km/h 0.3 km/h 69 % 0 mm
13:38 -8.5 °C -11.7 °C 34872.4 hPa WSW 14.5 km/h 5.1 km/h 69 % 0 mm
13:44 -8.6 °C -11.7 °C 34872.4 hPa WSW 11.6 km/h 2.1 km/h 69 % 0 mm
13:49 -8.6 °C -11.7 °C 34872.4 hPa WSW 11.9 km/h 5.1 km/h 69 % 0 mm
13:53 -8.6 °C -11.8 °C 34872.4 hPa WSW 15 km/h 2.9 km/h 69 % 0 mm
13:59 -8.7 °C -11.7 °C 34875.8 hPa SW 11.9 km/h 4.7 km/h 70 % 0 mm
14:03 -8.8 °C -11.8 °C 34875.8 hPa WSW 11.6 km/h 5 km/h 70 % 0 mm
14:09 -8.8 °C -11.8 °C 34875.8 hPa WSW 3.1 km/h   71 % 0 mm
14:14 -8.8 °C -11.7 °C 34872.4 hPa Calm     72 % 0 mm
14:18 -8.8 °C -11.7 °C 34872.4 hPa SSW 15 km/h 3.1 km/h 72 % 0 mm
14:24 -8.9 °C -11.7 °C 34872.4 hPa WSW 15 km/h 4.7 km/h 72 % 0 mm
14:28 -8.9 °C -11.6 °C 34869 hPa SSW 2.9 km/h 0.3 km/h 73 % 0 mm
14:33 -9 °C -11.7 °C 34869 hPa SSW 3.1 km/h 0.3 km/h 73 % 0 mm
14:38 -8.9 °C -11.6 °C 34865.6 hPa SSW 15 km/h 0.5 km/h 73 % 0 mm
14:43 -8.9 °C -11.6 °C 34865.6 hPa Calm     73 % 0 mm
14:48 -8.9 °C -11.7 °C 34862.3 hPa WSW 15 km/h 2.9 km/h 72 % 0 mm
14:54 -8.9 °C -11.8 °C 34858.9 hPa SSW 6 km/h 1.3 km/h 72 % 0 mm
14:58 -9 °C -11.8 °C 34855.5 hPa South 11.9 km/h 2.1 km/h 72 % 0 mm
15:04 -9 °C -11.8 °C 34858.9 hPa Calm     72 % 0 mm
15:09 -9 °C -11.8 °C 34858.9 hPa West 17.9 km/h 3.1 km/h 72 % 0 mm
15:13 -9 °C -11.8 °C 34858.9 hPa WSW 9 km/h   72 % 0 mm
15:19 -9 °C -11.8 °C 34858.9 hPa SW 2.6 km/h   72 % 0 mm
15:24 -9 °C -11.8 °C 34862.3 hPa Calm     72 % 0 mm
15:28 -9 °C -11.8 °C 34865.6 hPa WSW 11.6 km/h 1.6 km/h 72 % 0 mm
15:33 -8.9 °C -11.8 °C 34862.3 hPa WSW 8.9 km/h 1.6 km/h 72 % 0 mm
15:39 -8.9 °C -11.7 °C 34862.3 hPa Calm     72 % 0 mm
15:44 -8.8 °C -11.6 °C 34858.9 hPa Calm     72 % 0 mm
15:48 -8.7 °C -11.7 °C 34865.6 hPa SW 6 km/h 0.8 km/h 70 % 0 mm
15:54 -8.7 °C -11.8 °C 34862.3 hPa Calm     70 % 0 mm
15:58 -8.8 °C -11.8 °C 34865.6 hPa Calm     70 % 0 mm
16:04 -8.8 °C -11.8 °C 34862.3 hPa Calm     71 % 0 mm
16:09 -8.8 °C -11.8 °C 34858.9 hPa Calm     71 % 0 mm
16:14 -8.9 °C -11.8 °C 34855.5 hPa SW 3.1 km/h   71 % 0 mm
16:19 -8.8 °C -11.8 °C 34858.9 hPa West 8 km/h 0.8 km/h 71 % 0 mm
16:24 -8.8 °C -11.7 °C 34855.5 hPa Calm     72 % 0 mm
16:29 -8.9 °C -11.8 °C 34852.1 hPa SSW 5.5 km/h 1 km/h 71 % 0 mm
16:34 -8.9 °C -11.9 °C 34852.1 hPa SSW 3.1 km/h   71 % 0 mm
16:39 -9 °C -11.8 °C 34852.1 hPa Calm     72 % 0 mm
16:44 -9.1 °C -11.7 °C 34852.1 hPa Calm     73 % 0 mm
16:48 -9.1 °C -11.8 °C 34852.1 hPa Calm     73 % 0 mm
16:53 -9.1 °C -11.6 °C 34852.1 hPa Calm     74 % 0 mm
16:59 -9.1 °C -11.6 °C 34852.1 hPa WNW 6 km/h   74 % 0 mm
17:03 -9.1 °C -11.7 °C 34848.7 hPa WSW 5.6 km/h 1 km/h 74 % 0 mm
17:08 -9.1 °C -11.8 °C 34848.7 hPa West 6 km/h 1 km/h 73 % 0 mm
17:13 -9.1 °C -11.8 °C 34848.7 hPa WSW 8.9 km/h 1.3 km/h 73 % 0 mm
17:18 -9.2 °C -11.8 °C 34848.7 hPa Calm     73 % 0 mm
17:23 -9.2 °C -11.7 °C 34848.7 hPa Calm     74 % 0 mm
17:29 -9.2 °C -11.8 °C 34848.7 hPa Calm     74 % 0 mm
17:33 -9.2 °C -11.9 °C 34848.7 hPa WSW 14.5 km/h 3.4 km/h 73 % 0 mm
17:39 -9.3 °C -11.8 °C 34852.1 hPa Calm     74 % 0 mm
17:43 -9.3 °C -11.9 °C 34855.5 hPa Calm     74 % 0 mm
17:49 -9.3 °C -11.8 °C 34852.1 hPa Calm     75 % 0 mm
17:54 -9.4 °C -11.8 °C 34852.1 hPa WSW 9 km/h 1 km/h 75 % 0 mm
17:58 -9.4 °C -11.8 °C 34852.1 hPa Calm     76 % 0 mm
18:04 -9.5 °C -11.8 °C 34848.7 hPa Calm     76 % 0 mm
18:08 -9.6 °C -11.9 °C 34852.1 hPa Calm     76 % 0 mm
18:13 -9.6 °C -11.8 °C 34852.1 hPa Calm     77 % 0 mm
18:19 -9.7 °C -11.9 °C 34852.1 hPa Calm     77 % 0 mm
18:24 -9.8 °C -11.8 °C 34848.7 hPa Calm     78 % 0 mm
18:28 -9.8 °C -11.9 °C 34852.1 hPa Calm     78 % 0 mm
18:34 -9.9 °C -12 °C 34848.7 hPa Calm     78 % 0 mm
18:38 -10 °C -12.1 °C 34848.7 hPa Calm     78 % 0 mm
18:44 -10.1 °C -12.1 °C 34848.7 hPa Calm     79 % 0 mm
18:49 -10.2 °C -12.1 °C 34848.7 hPa Calm     79 % 0 mm
18:54 -10.3 °C -12.3 °C 34845.3 hPa Calm     79 % 0 mm
18:59 -10.4 °C -12.3 °C 34845.3 hPa Calm     79 % 0 mm
19:05 -10.4 °C -12.2 °C 34845.3 hPa Calm     81 % 0 mm
19:08 -10.6 °C -12.3 °C 34845.3 hPa Calm     81 % 0 mm
19:13 -10.7 °C -12.4 °C 34845.3 hPa Calm     81 % 0 mm
19:19 -10.7 °C -12.4 °C 34845.3 hPa Calm     82 % 0 mm
19:23 -10.8 °C -12.4 °C 34845.3 hPa Calm     83 % 0 mm
19:29 -10.9 °C -12.5 °C 34848.7 hPa Calm     83 % 0 mm
19:34 -11.1 °C -12.5 °C 34852.1 hPa Calm     84 % 0 mm
19:38 -11.1 °C -12.6 °C 34852.1 hPa Calm     84 % 0 mm
19:43 -11.2 °C -12.6 °C 34852.1 hPa Calm     85 % 0 mm
19:48 -11.2 °C -12.6 °C 34852.1 hPa Calm     85 % 0 mm
19:53 -11.3 °C -12.6 °C 34848.7 hPa Calm     86 % 0 mm
Weerpagina Nieuwendam
Gegevens verzameld door Weather Underground - 3.5 mb

Script ontwikkeld door  Jim McMurry - jmcmurry@mwt.net Aangepast voor de template door  Wim van der Kuil - Leuven-Template.eu

U vindt ons ook hier:

UK Metoffice

European Weather Network

WeatherCloud

Weather Underground

Benelux Weer Netwerk

AWEKAS

Citizen Weather Observer Program (CWOP)

Apparatuur in gebruik:

Weerstation
Davis VP2

Weerprogramma
Weather Display

Weercomputer
My Computer

Davis VP2

Weather Display

My Computer